Weather in Kurapovka

Russia / Samara Oblast     53°04′36″N   51°22′31″E
temp.,
°C
wind,
m/s
gust,
m/s
humid.,
%
clouds,
%
prec.,
mm/h
press.,
hPa
HPBL,
m
26 february, fri
fri2601:00−16sse61294100 0.8 1022572
04:00−15sse51194100 1.2 1021518
07:00−14sse51193100 0.4 1019486
10:00−13se6109099 0.6 1019577
13:00−12se7108795 0.0 1019603
16:00−12se6108897 0.1 1019554
19:00−14se6129199 0.0 1016409
22:00−11sse81493100 0.3 1012511
27 february, sat
sat2701:00−10sse91794100 2.8 1006545
04:00−7sse71394100 7.6 1002489
07:00−3s4696100 1.1 1000200
10:00+1w61110098 1.3 999590
13:00+1wsw61110099 0.1 999581
16:00+1wsw5910099 0.3 999437
19:000sw4898100 0.3 998417
22:00−1sw4898100 0.8 998331
28 february, sun
sun2801:00−1ssw3699100 0.9 997236
04:00−1sw2599100 2.3 998160
07:00−5wnw4796100 1.0 1000255
10:00−9nw699499 1.2 1002330
13:00−9nw6892100 0.2 1005423
16:00−10nw5891100 0.3 1007494
19:00−13nw4894100 0.1 1010242
22:00−13nnw479498 0.1 1013279
1 march, mon
mon101:00−17nw369583 0.0 1015144
04:00−20nw349579 0.0 101766
07:00−21nnw349622 0.0 101957
10:00−19nnw359314 0.0 1021214
13:00−16nnw359146 0.0 1022332
16:00−16nw359269 0.0 1023320
19:00−20nw339743 0.0 102328
22:00−21wnw229722 0.0 102420
2 march, tue
tue201:00−22wsw239918 0.0 102220
04:00−22sw349840 0.0 102148
07:00−20ssw489782 0.0 1018166
10:00−15ssw6109491 0.1 1015331
13:00−11sw71294100 0.8 1012537
16:00−8ssw71292100 1.6 1009546
19:00−5ssw51095100 0.8 1006394
22:00−4ssw3797100 1.7 1004271